This demonstration page uses our WeatherBlox Daily Observations layout. Learn more.

Left ArrowRight Arrow

Hourly Observations for August 19, 2022

Temp ( °F °C ) Dew Point ( °F °C ) Humidity (%) Winds ( mph kmh ) Pressure ( in mb ) Visibility ( mi km ) Precip ( " mm )
12:15 am 00:15 Clear 66 19 62 16.5 85 85 NNE 8 13 29.90 1012 10 16 0.00 0.00
12:35 am 00:35 Clear 66 18.7 61 16.3 86 86 N 8 13 29.90 1012 10 16 0.00 0.00
12:55 am 00:55 Partly Cloudy 67 19.2 61 16 82 82 N 7 11 29.89 1012 10 16 0.00 0.00
1:15 am 01:15 Partly Cloudy 67 19.3 60 15.7 80 80 N 7 11 29.89 1012 10 16 0.00 0.00
1:35 am 01:35 Clear 67 19.4 59 15.2 77 77 NNE 3 6 29.89 1012 10 16 0.00 0.00
1:55 am 01:55 Partly Cloudy 67 19.2 59 15 77 77 Calm 29.89 1012 10 16 0.00 0.00
2:15 am 02:15 Partly Cloudy 68 20 58 14.2 69 69 Calm 29.88 1012 10 16 0.00 0.00
2:35 am 02:35 Partly Cloudy 66 19 57 14.1 73 73 Calm 29.88 1012 10 16 0.00 0.00
2:55 am 02:55 Mostly Cloudy 64 18 58 14.4 79 79 Calm 29.88 1012 10 16 0.00 0.00
3:15 am 03:15 Cloudy 65 18.1 59 15 82 82 Calm 29.88 1012 10 16 0.00 0.00
3:35 am 03:35 Partly Cloudy 65 18.4 58 14.5 78 78 Calm 29.87 1012 10 16 0.00 0.00
3:55 am 03:55 Partly Cloudy 64 17.5 58 14.5 83 83 Calm 29.88 1012 10 16 0.00 0.00
4:15 am 04:15 Clear 63 17.2 59 14.8 86 86 Calm 29.88 1012 10 16 0.00 0.00
4:35 am 04:35 Clear 61 16.1 57 14.1 88 88 NE 3 6 29.88 1012 10 16 0.00 0.00
4:55 am 04:55 Clear 62 16.9 58 14.4 85 85 Calm 29.87 1012 10 16 0.00 0.00
5:15 am 05:15 Partly Cloudy 63 17.2 58 14.2 83 83 NE 6 9 29.86 1011 10 16 0.00 0.00
5:35 am 05:35 Partly Cloudy 62 16.4 58 14.3 87 87 NE 5 7 29.87 1011 10 16 0.00 0.00
5:55 am 05:55 Partly Cloudy 61 15.9 58 14.2 90 90 NE 5 7 29.87 1012 10 16 0.00 0.00
6:15 am 06:15 Partly Cloudy 62 16.7 58 14.7 88 88 Calm 29.87 1012 10 16 0.00 0.00
6:35 am 06:35 Partly Cloudy with Nearby Thunderstorms 62 16.5 58 14.7 89 89 Calm 29.88 1012 10 16 0.00 0.00
6:55 am 06:55 Partly Cloudy 61 16.2 58 14.6 90 90 Calm 29.88 1012 10 16 0.00 0.00
7:15 am 07:15 Partly Cloudy 62 16.4 58 14.7 90 90 Calm 29.89 1012 10 16 0.00 0.00
7:35 am 07:35 Partly Cloudy 60 15.8 58 14.7 93 93 Calm 29.89 1012 10 16 0.00 0.00
7:55 am 07:55 Mostly Cloudy 64 17.5 60 15.6 89 89 Calm 29.88 1012 10 16 0.00 0.00
8:15 am 08:15 Partly Cloudy 66 19.1 60 15.8 81 81 Calm 29.87 1011 10 16 0.00 0.00
8:35 am 08:35 Sunny 68 20 62 16.7 81 81 Calm 29.86 1011 10 16 0.00 0.00
8:55 am 08:55 Sunny 70 21.1 63 17 77 77 Calm 29.85 1011 10 16 0.00 0.00
9:15 am 09:15 Sunny 72 22 63 17.3 75 75 Calm 29.86 1011 10 16 0.00 0.00
9:35 am 09:35 Mostly Cloudy 72 22.4 64 17.7 75 75 NNW 5 7 29.86 1011 10 16 0.00 0.00
9:55 am 09:55 Mostly Cloudy 70 21 64 17.9 82 82 Calm 29.89 1012 10 16 0.00 0.00
10:15 am 10:15 Mostly Cloudy 70 21 64 17.7 81 81 N 10 17 29.91 1013 10 16 0.00 0.00
10:35 am 10:35 Mostly Cloudy 69 20.7 63 17.4 81 81 NNE 6 9 29.90 1013 10 16 0.00 0.00
10:55 am 10:55 Mostly Cloudy 71 21.5 62 16.7 74 74 NE 6 9 29.88 1012 10 16 0.00 0.00
11:15 am 11:15 Mostly Cloudy 72 22.2 62 16.5 70 70 NE 5 7 29.89 1012 10 16 0.00 0.00
11:35 am 11:35 Mostly Cloudy 72 22.3 61 16.1 68 68 NNW 7 11 29.89 1012 10 16 0.00 0.00
11:55 am 11:55 Mostly Cloudy 73 22.7 61 16 66 66 N 5 7 29.89 1012 10 16 0.00 0.00
12:15 pm 12:15 Mostly Cloudy 73 23 61 16.3 66 66 Calm 29.88 1012 10 16 0.00 0.00
12:35 pm 12:35 Partly Cloudy 75 24 61 16 61 61 ENE 3 6 29.86 1011 10 16 0.00 0.00
12:55 pm 12:55 Sunny 76 24.6 62 16.5 61 61 Calm 29.85 1011 10 16 0.00 0.00
1:15 pm 13:15 Sunny 78 25.3 62 16.6 59 59 NNE 5 7 29.84 1011 10 16 0.00 0.00
1:35 pm 13:35 Partly Cloudy 80 26.4 62 16.7 55 55 NE 8 13 29.84 1010 10 16 0.00 0.00
1:55 pm 13:55 Partly Cloudy 80 26.5 62 16.7 55 55 NE 5 7 29.84 1010 10 16 0.00 0.00
2:15 pm 14:15 Partly Cloudy 80 26.6 64 17.5 57 57 NE 5 7 29.83 1010 10 16 0.00 0.00
2:35 pm 14:35 Sunny 80 26.7 63 17.1 56 56 ENE 6 9 29.82 1010 10 16 0.00 0.00
2:55 pm 14:55 Sunny 81 27.4 62 16.4 51 51 ENE 3 6 29.82 1010 10 16 0.00 0.00
3:15 pm 15:15 Sunny 81 27.3 61 16.3 51 51 Calm 29.81 1009 10 16 0.00 0.00
3:35 pm 15:35 Mostly Cloudy 81 27.1 61 16.2 51 51 NE 3 6 29.80 1009 10 16 0.00 0.00
3:55 pm 15:55 Partly Cloudy 82 27.6 61 16.3 50 50 E 5 7 29.80 1009 10 16 0.00 0.00
4:15 pm 16:15 Mostly Cloudy 81 27.4 61 16 50 50 Calm 29.79 1009 10 16 0.00 0.00
4:35 pm 16:35 Partly Cloudy 80 26.7 61 16 52 52 N 5 7 29.79 1009 10 16 0.00 0.00
4:55 pm 16:55 Sunny 82 27.8 61 15.9 48 48 Calm 29.78 1009 10 16 0.00 0.00
5:15 pm 17:15 Sunny 81 27.4 60 15.6 49 49 NE 6 9 29.79 1009 10 16 0.00 0.00
5:35 pm 17:35 Sunny 82 27.8 60 15.3 47 47 Calm 29.78 1009 10 16 0.00 0.00
5:55 pm 17:55 Partly Cloudy 82 27.6 59 14.8 46 46 Calm 29.79 1009 10 16 0.00 0.00
6:15 pm 18:15 Sunny 82 27.6 59 15.1 46 46 Calm 29.79 1009 10 16 0.00 0.00
6:35 pm 18:35 Partly Cloudy 81 27.3 58 14.7 46 46 Calm 29.79 1009 10 16 0.00 0.00
6:55 pm 18:55 Partly Cloudy 81 27.2 59 15 47 47 ENE 5 7 29.79 1009 10 16 0.00 0.00
7:15 pm 19:15 Sunny 81 27 58 14.7 47 47 E 3 6 29.79 1009 10 16 0.00 0.00
7:35 pm 19:35 Sunny 78 25.5 62 16.9 59 59 ESE 3 6 29.80 1009 10 16 0.00 0.00
7:55 pm 19:55 Sunny 76 24.5 64 18 67 67 Calm 29.82 1010 10 16 0.00 0.00
8:15 pm 20:15 Sunny 75 23.8 65 18.2 71 71 Calm 29.84 1010 10 16 0.00 0.00
8:35 pm 20:35 Clear 73 22.9 64 17.7 73 73 Calm 29.85 1011 10 16 0.00 0.00
8:55 pm 20:55 Clear 70 20.9 64 17.8 82 82 NNE 6 9 29.88 1012 10 16 0.00 0.00
9:15 pm 21:15 Clear 67 19.6 63 17.3 87 87 N 6 9 29.89 1012 10 16 0.00 0.00
9:35 pm 21:35 Partly Cloudy 67 19.7 61 16 79 79 N 6 9 29.90 1012 10 16 0.00 0.00
9:55 pm 21:55 Partly Cloudy 65 18.6 58 14.6 78 78 N 5 7 29.92 1013 10 16 0.00 0.00
10:15 pm 22:15 Clear 64 18 59 15 83 83 NNE 6 9 29.93 1014 10 16 0.00 0.00
10:35 pm 22:35 Clear 65 18.1 56 13.3 74 74 NNE 9 15 29.94 1014 10 16 0.00 0.00
10:55 pm 22:55 Clear 63 17.4 56 13.4 77 77 NNE 7 11 29.96 1015 10 16 0.00 0.00
11:15 pm 23:15 Clear 62 16.8 56 13.2 79 79 NNE 8 13 29.96 1015 10 16 0.00 0.00
11:35 pm 23:35 Clear 61 16.2 56 13.3 83 83 NE 6 9 29.97 1015 10 16 0.00 0.00
11:55 pm 23:55 Clear 62 16.4 56 13.1 81 81 NE 7 11 29.97 1015 10 16 0.00 0.00

Powered by AerisWeather